[[{"header":{"parameterUnit":"m.s-1","parameterCategory":1,"la1":30.2991,"la2":30.254,"lo1":-89.0895,"lo2":-89.0444,"dy":0.0017,"dx":0.0017,"nx":28,"ny":28,"refTime":"2024-08-02T09:00:00:Z","depth":0,"parameterNumber":2,"parameterNumberName":"U-component_of_WINDS"},"data":[0,0,0,0,0,0,0,0,0,0,0,0,0,0,0,0,0,0,0,0,0,0,0,0,0,0,0,0,0,0,0,0,0,0,0,0,0,0,0,0,0,0,0,0,0,0,0,0,0,0,0,0,0,0,0,0,0,0,1.5794,1.5796,0,1.6017,1.6019,1.6022,1.6057,1.6054,1.6052,1.6051,1.629,1.6298,1.6306,0,0,0,0,0,0,0,0,0,0,0,0,0,1.5409,1.5415,1.5793,1.5796,1.5799,1.6016,1.6019,1.6022,1.6057,1.6054,1.6052,1.605,1.6287,1.6297,1.6306,0,0,0,0,0,0,0,0,0,0,0,0,0,1.5598,1.5418,1.5793,1.5842,1.5849,1.6016,1.6019,1.6023,1.6057,1.6054,1.6051,1.6049,1.6284,1.6296,1.6308,1.6444,0,0,1.6346,1.6351,0,0,0,0,0,0,0,0,1.5587,1.5612,1.5832,1.5839,1.5847,1.6005,1.5971,1.6165,1.6058,1.5978,1.6051,1.6047,1.6198,1.6217,1.6266,1.6456,1.6466,1.6347,1.6354,1.6359,1.6363,0,0,0,0,0,0,0,1.5574,1.5603,1.5882,1.5835,1.5844,1.5857,1.588,1.6008,1.6103,1.5985,1.5988,1.6014,1.6202,1.6254,1.6272,1.6469,1.6346,1.6357,1.6365,1.637,1.6786,1.679,0,0,0,0,0,0,1.5551,1.5592,1.5875,1.5889,1.5707,1.5866,1.5892,1.5958,1.6101,1.612,1.6016,1.6014,1.6235,1.6258,1.6281,1.6452,1.6359,1.6371,1.6378,1.6783,1.6787,1.6791,0,0,0,0,0,0,1.5542,1.5576,1.5866,1.5741,1.5779,1.5876,1.5949,1.5964,1.6016,1.6124,1.6143,1.6051,1.6233,1.6263,1.6404,1.6461,1.6376,1.6388,1.6778,1.6784,1.6789,1.6795,0,0,0,0,0,0,1.5531,1.5572,1.5622,1.5742,1.5785,1.5982,1.5952,1.597,1.6036,1.6036,1.6163,1.6181,1.6233,1.6385,1.6416,1.6477,1.6397,1.6774,1.6781,1.6787,1.6791,1.68,1.6809,0,0,0,0,0,1.5517,1.5617,1.5625,1.5659,1.5849,1.5985,1.601,1.6065,1.604,1.6094,1.6164,1.6177,1.6449,1.6399,1.6434,1.6499,1.677,1.6779,1.6787,1.6786,1.6798,1.6809,0,0,0,0,0,0,1.5505,1.5633,1.5643,1.5784,1.5873,1.599,1.6059,1.6076,1.6176,1.6172,1.6239,1.6268,1.6406,1.6467,1.6408,1.6641,1.6608,1.6624,1.6596,1.6609,1.6617,1.6601,1.6408,0,0,0,0,0,1.5517,1.5613,1.5722,1.5836,1.5879,1.5961,1.6022,1.6057,1.6153,1.6192,1.6272,1.6368,1.6476,1.6545,1.665,1.6799,1.683,1.6862,1.6871,1.6878,1.6891,1.6978,1.6995,1.6818,1.6818,1.6818,0,0,1.5547,1.5629,1.5685,1.5835,1.5908,1.6009,1.5993,1.61,1.6177,1.6209,1.6346,1.6409,1.6521,1.6666,1.6735,1.6722,1.6947,1.6888,1.6893,1.6903,1.6989,1.7005,1.702,1.6824,1.6823,1.6822,0,0,1.5652,1.5721,1.5825,1.5898,1.6008,1.6062,1.6087,1.6202,1.6244,1.6382,1.6409,1.6503,1.6686,1.6766,1.683,1.6967,1.6984,1.6999,1.7048,1.7132,1.7146,1.7159,1.7211,1.7228,1.7012,1.7012,1.7012,0,1.5675,1.5825,1.5877,1.5984,1.6051,1.6081,1.6189,1.6259,1.6398,1.6446,1.6428,1.6659,1.6737,1.6903,1.6936,1.6986,1.702,1.6986,1.7139,1.7152,1.7165,1.7216,1.7235,1.7013,1.7013,1.7013,1.7013,0,1.5849,1.5953,1.6025,1.6155,1.623,1.6337,1.641,1.648,1.6508,1.6566,1.6708,1.6802,1.6927,1.6969,1.6999,1.7141,1.713,1.7124,1.7094,1.7182,1.7231,1.7251,1.7015,1.7015,1.7014,1.7014,0,0,1.5953,1.6111,1.6137,1.6198,1.6322,1.6405,1.6515,1.6635,1.6696,1.6791,1.6888,1.7043,1.7039,1.7112,1.7152,1.7225,1.7331,1.7212,1.7216,1.7233,1.7498,1.7503,1.7524,1.7342,1.7346,1.7349,1.749,0,1.6074,1.6267,1.6318,1.6484,1.6583,1.6614,1.6711,1.68,1.6856,1.6952,1.7017,1.7126,1.7111,1.7156,1.723,1.7302,1.7386,1.7293,1.7438,1.7442,1.741,1.7549,1.7554,1.7682,1.7509,1.7512,1.7514,0,1.6241,1.6337,1.6512,1.6625,1.6669,1.6754,1.6869,1.6959,1.7062,1.7099,1.718,1.7213,1.7334,1.7294,1.7463,1.7399,1.7462,1.7506,1.7513,1.7531,1.7485,1.7573,1.7724,1.7744,1.7544,1.7542,1.754,0,1.6302,1.6476,1.6604,1.6655,1.6789,1.6849,1.6909,1.7008,1.7078,1.718,1.7227,1.7342,1.7407,1.7497,1.7562,1.7527,1.7728,1.7693,1.7765,1.7764,1.7808,1.7805,1.7973,1.7843,1.7843,1.7843,1.7842,0,1.6433,1.654,1.6633,1.6712,1.6833,1.6893,1.7013,1.7075,1.7163,1.7258,1.7293,1.7382,1.7461,1.7562,1.7614,1.7748,1.7776,1.7812,1.7826,1.7811,1.7807,1.7855,1.7849,1.7848,1.7847,1.7846,1.7845,0,1.6522,1.6588,1.673,1.6846,1.6878,1.6962,1.7064,1.7144,1.7201,1.7321,1.7353,1.7445,1.7566,1.7639,1.7792,1.7828,1.7977,1.7985,1.7941,1.7948,1.8017,1.8011,1.8225,1.8258,1.8103,1.8104,1.8105,0,1.6603,1.6685,1.6809,1.6873,1.6933,1.7036,1.7107,1.717,1.7243,1.7368,1.7434,1.7556,1.7657,1.7849,1.7933,1.8052,1.8065,1.8132,1.8083,1.8067,1.807,1.8065,1.8076,1.8141,1.8142,1.8143,1.8144,0,1.6739,1.6768,1.6867,1.6978,1.7061,1.7153,1.7244,1.7296,1.7376,1.7457,1.7579,1.7657,1.7813,1.7936,1.8062,1.8128,1.8152,1.8158,1.8182,1.8169,1.8142,1.8161,1.7967,1.8154,1.8153,1.8152,1.8151,1.8151,1.6829,1.6905,1.7004,1.7114,1.7189,1.7274,1.7356,1.7423,1.7525,1.7655,1.7687,1.7817,1.7922,1.8093,1.8162,1.8267,1.8257,1.829,1.8299,1.8307,1.8311,1.8122,1.829,1.8289,1.8289,1.8289,1.8289,0,1.697,1.7035,1.7136,1.7262,1.735,1.7359,1.7462,1.7536,1.7648,1.7742,1.7841,1.7984,1.8103,1.8196,1.8319,1.8386,1.84,1.8417,1.8414,1.843,1.8311,1.8279,1.8404,1.8404,1.8403,1.8403,1.8403,1.8403,1.7054,1.7183,1.7225,1.7394,1.746,1.7584,1.7642,1.7723,1.7798,1.7955,1.8053,1.8112,1.8207,1.8338,1.845,1.8475,1.8521,1.8536,1.8563,1.845,1.8438,1.8426,1.8397,1.8544,1.8544,1.8674,1.8675,1.8676]},{"header":{"parameterUnit":"m.s-1","parameterCategory":1,"la1":30.2991,"la2":30.254,"lo1":-89.0895,"lo2":-89.0444,"dy":0.0017,"dx":0.0017,"nx":28,"ny":28,"refTime":"2024-08-02T09:00:00:Z","depth":0,"parameterNumber":3,"parameterNumberName":"V-component_of_WINDS"},"data":[0,0,0,0,0,0,0,0,0,0,0,0,0,0,0,0,0,0,0,0,0,0,0,0,0,0,0,0,0,0,0,0,0,0,0,0,0,0,0,0,0,0,0,0,0,0,0,0,0,0,0,0,0,0,0,0,0,0,0.5366,0.5369,0,0.566,0.5663,0.5667,0.5661,0.5657,0.5653,0.5649,0.5965,0.5976,0.5988,0,0,0,0,0,0,0,0,0,0,0,0,0,0.4814,0.4824,0.5365,0.5369,0.5373,0.566,0.5664,0.5668,0.5662,0.5657,0.5652,0.5647,0.5961,0.5975,0.5989,0,0,0,0,0,0,0,0,0,0,0,0,0,0.5076,0.4827,0.5365,0.5404,0.541,0.5659,0.5664,0.5669,0.5663,0.5657,0.5651,0.5645,0.5956,0.5973,0.5991,0.6224,0,0,0.6047,0.6055,0,0,0,0,0,0,0,0,0.5061,0.5096,0.5394,0.5402,0.5409,0.5617,0.5585,0.5856,0.5664,0.5567,0.5649,0.5642,0.5855,0.5881,0.595,0.6239,0.6253,0.6049,0.606,0.6068,0.6073,0,0,0,0,0,0,0,0.5043,0.5084,0.5482,0.5399,0.5408,0.5412,0.5443,0.5636,0.5742,0.5575,0.5575,0.561,0.5858,0.5932,0.5957,0.6257,0.6048,0.6064,0.6076,0.6083,0.6761,0.6768,0,0,0,0,0,0,0.5014,0.5068,0.5473,0.5491,0.5216,0.5427,0.5461,0.5557,0.5739,0.5761,0.5615,0.5608,0.5904,0.5936,0.5968,0.6258,0.6067,0.6084,0.6095,0.6754,0.6762,0.677,0,0,0,0,0,0,0.5003,0.505,0.5461,0.528,0.5332,0.5443,0.5551,0.5566,0.564,0.5769,0.5789,0.567,0.5901,0.5943,0.6162,0.6269,0.6093,0.6109,0.6745,0.6756,0.6766,0.6836,0,0,0,0,0,0,0.4987,0.5046,0.5131,0.5282,0.5342,0.5644,0.5557,0.5576,0.567,0.5665,0.5827,0.5848,0.5899,0.6134,0.618,0.629,0.6123,0.6736,0.675,0.6763,0.6824,0.6847,0.6867,0,0,0,0,0,0.4967,0.5141,0.5136,0.5185,0.545,0.565,0.5685,0.5737,0.5678,0.5768,0.5852,0.5843,0.6249,0.6157,0.6208,0.6326,0.673,0.6746,0.6762,0.6815,0.6843,0.6866,0,0,0,0,0,0,0.5003,0.5161,0.5157,0.5383,0.5503,0.5649,0.5763,0.5764,0.5906,0.5896,0.5958,0.5995,0.6215,0.6292,0.6187,0.6565,0.6483,0.651,0.6506,0.6534,0.6554,0.6533,0.6139,0,0,0,0,0,0.5036,0.5181,0.5313,0.55,0.556,0.5652,0.5741,0.577,0.5899,0.595,0.605,0.6179,0.6337,0.6439,0.659,0.6835,0.6874,0.6942,0.6963,0.698,0.7004,0.7146,0.7179,0.6822,0.6822,0.6822,0,0,0.5109,0.5213,0.5301,0.551,0.5606,0.5761,0.5694,0.5858,0.5976,0.5977,0.6189,0.6268,0.6417,0.6651,0.6759,0.6722,0.7111,0.7001,0.7013,0.7028,0.7166,0.7199,0.7229,0.6833,0.6831,0.683,0,0,0.5319,0.541,0.5579,0.5677,0.5823,0.5883,0.5924,0.6071,0.6122,0.6335,0.6341,0.6484,0.6752,0.686,0.6949,0.7207,0.7206,0.7255,0.7368,0.7505,0.7533,0.7559,0.7656,0.769,0.7278,0.7278,0.7278,0,0.5392,0.5619,0.5666,0.5833,0.5928,0.5933,0.6109,0.6203,0.6393,0.6461,0.6416,0.6756,0.6856,0.7119,0.7182,0.7253,0.7307,0.7238,0.7524,0.7551,0.7575,0.7669,0.7705,0.7283,0.7282,0.7282,0.7281,0,0.5704,0.5862,0.5982,0.6162,0.6271,0.6441,0.652,0.6626,0.6647,0.6715,0.6937,0.7057,0.7236,0.73,0.7323,0.7569,0.7542,0.751,0.743,0.7614,0.7703,0.7739,0.7291,0.7289,0.7287,0.7286,0,0,0.5944,0.615,0.6194,0.6279,0.6443,0.6569,0.6743,0.6914,0.7006,0.7139,0.729,0.7519,0.7492,0.7594,0.763,0.775,0.7954,0.7705,0.771,0.7751,0.824,0.8265,0.8305,0.7954,0.7961,0.7966,0.8229,0,0.6175,0.6478,0.6528,0.6797,0.6948,0.6958,0.7111,0.7232,0.73,0.7443,0.7521,0.7684,0.7633,0.7696,0.7815,0.7904,0.8054,0.7885,0.8102,0.8109,0.8067,0.8351,0.8378,0.8619,0.8263,0.8269,0.8273,0,0.6484,0.6622,0.6905,0.7054,0.712,0.7255,0.742,0.7554,0.7694,0.7736,0.7852,0.7876,0.8064,0.7973,0.8237,0.8121,0.8214,0.8272,0.8282,0.8307,0.8204,0.8388,0.8697,0.8735,0.8328,0.8324,0.832,0,0.6636,0.6894,0.7098,0.717,0.7347,0.7443,0.7523,0.7656,0.7758,0.7904,0.7972,0.8139,0.8232,0.8363,0.8434,0.8361,0.8696,0.8609,0.8742,0.874,0.8814,0.8809,0.9146,0.8866,0.8866,0.8865,0.8864,0,0.6891,0.7065,0.7169,0.7295,0.7493,0.7553,0.7749,0.7827,0.7947,0.8093,0.8113,0.8251,0.8334,0.8486,0.8543,0.8757,0.8797,0.8842,0.8856,0.8842,0.8837,0.8906,0.8893,0.8875,0.8873,0.8871,0.8869,0,0.7095,0.7171,0.7395,0.7545,0.7587,0.7727,0.7859,0.7986,0.8054,0.824,0.8287,0.8398,0.8579,0.8662,0.8885,0.8924,0.9169,0.9169,0.9121,0.9127,0.9256,0.9244,0.9652,0.9711,0.9388,0.9391,0.9393,0,0.7253,0.7388,0.7553,0.7651,0.7732,0.7889,0.7993,0.806,0.8169,0.8341,0.8449,0.8629,0.8777,0.9066,0.9171,0.9344,0.9352,0.9482,0.9378,0.9362,0.936,0.9353,0.937,0.9502,0.9506,0.9508,0.951,0,0.7529,0.7562,0.7709,0.7872,0.7996,0.8128,0.8258,0.8338,0.8426,0.8549,0.8732,0.8847,0.9076,0.9258,0.9438,0.9526,0.9537,0.9542,0.9583,0.9572,0.9541,0.9565,0.9177,0.9533,0.9531,0.9529,0.9528,0.9527,0.772,0.7842,0.7978,0.8144,0.8249,0.8371,0.8498,0.8584,0.8737,0.8926,0.8957,0.9154,0.9298,0.9542,0.9637,0.9796,0.9766,0.9823,0.9839,0.9853,0.9863,0.9512,0.9829,0.9828,0.9828,0.9827,0.9827,0,0.8001,0.809,0.8241,0.8423,0.8555,0.8548,0.8694,0.8807,0.8978,0.911,0.9255,0.947,0.9648,0.9766,0.9948,1.0053,1.0063,1.01,1.0095,1.0117,0.9877,0.9826,1.0089,1.0089,1.0089,1.0089,1.0089,1.0089,0.8163,0.8371,0.8421,0.8684,0.8773,0.8964,0.9049,0.9164,0.927,0.9508,0.9654,0.9729,0.9859,1.005,1.0215,1.0247,1.0315,1.0353,1.0384,1.016,1.0132,1.0106,1.0059,1.0366,1.0367,1.0611,1.0613,1.0615]}]]